N124MC KRAP-KPHP

Flight info

Callsign N124MC
Flight time 0h 26m
Altitude 5500
Route VFR
Aircraft M20P/L-VGD/C

Departure

Time 2026-04-25 22:21
Airport Rapid City Regional Airport (KRAP)

Arrival

Time 2026-04-25 22:48
Airport Philip Airport (KPHP)
Time Latitude Longitude Altitude Speed Heading
2026-04-25 22:14 44.04466 -103.06102 3176 ft 0 kts 100°
2026-04-25 22:18 44.04493 -103.06118 3177 ft 12 kts 333°
2026-04-25 22:18 44.04607 -103.06139 3179 ft 17 kts 24°
2026-04-25 22:18 44.04709 -103.06192 3180 ft 16 kts 332°
2026-04-25 22:19 44.04815 -103.06271 3180 ft 18 kts 335°
2026-04-25 22:19 44.04931 -103.06353 3183 ft 19 kts 330°
2026-04-25 22:19 44.05044 -103.06441 3187 ft 19 kts 331°
2026-04-25 22:19 44.05171 -103.06535 3190 ft 23 kts 332°
2026-04-25 22:20 44.05308 -103.06613 3194 ft 17 kts 19°
2026-04-25 22:20 44.05331 -103.06479 3195 ft 18 kts 138°
2026-04-25 22:20 44.05116 -103.06301 3188 ft 57 kts 152°
2026-04-25 22:20 44.04694 -103.05955 3278 ft 78 kts 148°
2026-04-25 22:21 44.04352 -103.05396 3567 ft 86 kts 105°
2026-04-25 22:21 44.04303 -103.04565 3905 ft 81 kts 112°
2026-04-25 22:21 44.04166 -103.03874 4272 ft 72 kts 109°
2026-04-25 22:21 44.04011 -103.03147 4466 ft 83 kts 110°
2026-04-25 22:22 44.03828 -103.02341 4690 ft 91 kts 110°
2026-04-25 22:22 44.03626 -103.01465 4917 ft 99 kts 111°
2026-04-25 22:22 44.03406 -103.00508 5143 ft 109 kts 111°
2026-04-25 22:22 44.03166 -102.99463 5372 ft 118 kts 110°
2026-04-25 22:23 44.02902 -102.98321 5507 ft 134 kts 110°
2026-04-25 22:23 44.02587 -102.96997 5515 ft 153 kts 111°
2026-04-25 22:23 44.02232 -102.95535 5510 ft 165 kts 110°
2026-04-25 22:23 44.01857 -102.93998 5507 ft 171 kts 110°
2026-04-25 22:24 44.01476 -102.92429 5510 ft 173 kts 110°
2026-04-25 22:24 44.01088 -102.90841 5511 ft 174 kts 111°
2026-04-25 22:24 44.00639 -102.89280 5513 ft 174 kts 115°
2026-04-25 22:24 44.00144 -102.87744 5514 ft 175 kts 116°
2026-04-25 22:25 43.99647 -102.86195 5515 ft 177 kts 116°
2026-04-25 22:25 43.99142 -102.84624 5515 ft 179 kts 116°
2026-04-25 22:25 43.98635 -102.83050 5517 ft 179 kts 116°
2026-04-25 22:25 43.98129 -102.81477 5516 ft 178 kts 115°
2026-04-25 22:26 43.97625 -102.79908 5521 ft 178 kts 115°
2026-04-25 22:26 43.97119 -102.78343 5518 ft 178 kts 116°
2026-04-25 22:26 43.96612 -102.76777 5522 ft 178 kts 116°
2026-04-25 22:26 43.96103 -102.75212 5523 ft 178 kts 115°
2026-04-25 22:27 43.95593 -102.73650 5526 ft 178 kts 116°
2026-04-25 22:27 43.95082 -102.72088 5525 ft 178 kts 116°
2026-04-25 22:27 43.94570 -102.70525 5527 ft 178 kts 115°
2026-04-25 22:27 43.94057 -102.68966 5530 ft 178 kts 116°
2026-04-25 22:28 43.93543 -102.67405 5531 ft 178 kts 116°
2026-04-25 22:28 43.93029 -102.65841 5534 ft 178 kts 115°
2026-04-25 22:28 43.92511 -102.64280 5536 ft 178 kts 115°
2026-04-25 22:28 43.91989 -102.62714 5507 ft 179 kts 115°
2026-04-25 22:29 43.91467 -102.61151 5509 ft 178 kts 115°
2026-04-25 22:29 43.90945 -102.59591 5514 ft 179 kts 115°
2026-04-25 22:29 43.90418 -102.58022 5516 ft 180 kts 115°
2026-04-25 22:30 43.89357 -102.54884 5514 ft 179 kts 115°
2026-04-25 22:30 43.88828 -102.53323 5511 ft 179 kts 115°
2026-04-25 22:30 43.88300 -102.51766 5510 ft 179 kts 115°
2026-04-25 22:30 43.87950 -102.50736 5515 ft 178 kts 115°
2026-04-25 22:31 43.87246 -102.48660 5513 ft 178 kts 115°
2026-04-25 22:31 43.86719 -102.47111 5515 ft 178 kts 115°
2026-04-25 22:31 43.86193 -102.45563 5514 ft 178 kts 115°
2026-04-25 22:31 43.85665 -102.44013 5510 ft 178 kts 115°
2026-04-25 22:32 43.85139 -102.42462 5515 ft 178 kts 115°
2026-04-25 22:32 43.84612 -102.40913 5517 ft 178 kts 115°
2026-04-25 22:32 43.84082 -102.39360 5512 ft 178 kts 115°
2026-04-25 22:32 43.83561 -102.37812 5515 ft 177 kts 113°
2026-04-25 22:33 43.83150 -102.36205 5513 ft 177 kts 108°
2026-04-25 22:33 43.82768 -102.34586 5512 ft 177 kts 108°
2026-04-25 22:33 43.82386 -102.32966 5511 ft 177 kts 108°
2026-04-25 22:33 43.82264 -102.31291 5504 ft 178 kts 81°
2026-04-25 22:34 43.82735 -102.29721 5510 ft 177 kts 62°
2026-04-25 22:34 43.83319 -102.28214 5515 ft 178 kts 64°
2026-04-25 22:34 43.83849 -102.26659 5515 ft 179 kts 66°
2026-04-25 22:34 43.84350 -102.25083 5515 ft 179 kts 67°
2026-04-25 22:35 43.84848 -102.23513 5510 ft 178 kts 67°
2026-04-25 22:35 43.85342 -102.21960 5516 ft 179 kts 67°
2026-04-25 22:35 43.85843 -102.20386 5512 ft 179 kts 67°
2026-04-25 22:35 43.86345 -102.18810 5516 ft 179 kts 66°
2026-04-25 22:36 43.86847 -102.17230 5519 ft 179 kts 66°
2026-04-25 22:36 43.87347 -102.15653 5516 ft 179 kts 67°
2026-04-25 22:36 43.87850 -102.14075 5520 ft 179 kts 67°
2026-04-25 22:36 43.88351 -102.12492 5518 ft 179 kts 67°
2026-04-25 22:37 43.88853 -102.10910 5514 ft 179 kts 67°
2026-04-25 22:37 43.89353 -102.09332 5514 ft 179 kts 67°
2026-04-25 22:37 43.89854 -102.07752 5519 ft 179 kts 67°
2026-04-25 22:37 43.90354 -102.06171 5520 ft 179 kts 66°
2026-04-25 22:38 43.90854 -102.04589 5518 ft 179 kts 67°
2026-04-25 22:38 43.91355 -102.03005 5517 ft 179 kts 66°
2026-04-25 22:38 43.91854 -102.01424 5518 ft 179 kts 66°
2026-04-25 22:38 43.92355 -101.99839 5519 ft 179 kts 66°
2026-04-25 22:39 43.92855 -101.98254 5516 ft 180 kts 66°
2026-04-25 22:39 43.93356 -101.96667 5513 ft 180 kts 66°
2026-04-25 22:39 43.93856 -101.95079 5521 ft 180 kts 66°
2026-04-25 22:39 43.94356 -101.93490 5517 ft 180 kts 66°
2026-04-25 22:40 43.94857 -101.91902 5408 ft 179 kts 67°
2026-04-25 22:40 43.95351 -101.90334 5273 ft 176 kts 67°
2026-04-25 22:40 43.95838 -101.88784 5143 ft 175 kts 68°
2026-04-25 22:40 43.96323 -101.87241 5012 ft 174 kts 68°
2026-04-25 22:41 43.96806 -101.85703 4883 ft 174 kts 68°
2026-04-25 22:41 43.97289 -101.84160 4754 ft 175 kts 68°
2026-04-25 22:41 43.97772 -101.82619 4618 ft 173 kts 68°
2026-04-25 22:41 43.98255 -101.81082 4486 ft 174 kts 68°
2026-04-25 22:42 43.98740 -101.79537 4356 ft 175 kts 68°
2026-04-25 22:42 43.99227 -101.77979 4225 ft 177 kts 68°
2026-04-25 22:42 43.99714 -101.76427 4090 ft 175 kts 68°
2026-04-25 22:42 44.00199 -101.74876 3960 ft 175 kts 68°
2026-04-25 22:43 44.00682 -101.73328 3836 ft 174 kts 68°
2026-04-25 22:43 44.01159 -101.71798 3701 ft 176 kts 68°
2026-04-25 22:43 44.01638 -101.70264 3695 ft 170 kts 68°
2026-04-25 22:43 44.02104 -101.68776 3700 ft 166 kts 68°
2026-04-25 22:44 44.02559 -101.67314 3686 ft 164 kts 69°
2026-04-25 22:44 44.03009 -101.65864 3694 ft 164 kts 68°
2026-04-25 22:44 44.03456 -101.64442 3693 ft 156 kts 68°
2026-04-25 22:44 44.03860 -101.63141 3688 ft 138 kts 69°
2026-04-25 22:45 44.04225 -101.61972 3692 ft 126 kts 69°
2026-04-25 22:45 44.04551 -101.60919 3714 ft 111 kts 69°
2026-04-25 22:45 44.04855 -101.59963 3585 ft 105 kts 73°
2026-04-25 22:45 44.05058 -101.59002 3436 ft 104 kts 76°
2026-04-25 22:46 44.05453 -101.58194 3264 ft 109 kts 22°
2026-04-25 22:46 44.06140 -101.58435 3185 ft 106 kts 317°
2026-04-25 22:46 44.06574 -101.59273 3053 ft 109 kts 297°
2026-04-25 22:46 44.06834 -101.60259 2927 ft 109 kts 266°
2026-04-25 22:47 44.06497 -101.61147 2721 ft 97 kts 216°
2026-04-25 22:47 44.05954 -101.61496 2625 ft 79 kts 184°
2026-04-25 22:47 44.05467 -101.61110 2409 ft 87 kts 138°
2026-04-25 22:47 44.05086 -101.60503 2217 ft 75 kts 126°
2026-04-25 22:48 44.04831 -101.60059 2203 ft 25 kts 128°
2026-04-25 22:48 44.04826 -101.60046 2203 ft 14 kts 304°
2026-04-25 22:48 44.04910 -101.60178 2204 ft 10 kts 345°
2026-04-25 22:48 44.04972 -101.60123 2205 ft 13 kts 44°
2026-04-25 22:49 44.05030 -101.60106 2205 ft 0 kts 39°